Simultaneous Nadir Overpasses (SNOs) Predictions

Prediction of SNOs between NOAA-20 and METOP-C Satellite Orbit:

Table of predicted SNOs for the next 14.0 days since TLE Epoch: 9/24/2022
Index Date (NOAA-20) Time (NOAA-20) Lat,Lon (NOAA-20) SZA (NOAA-20 ) Date (METOP-C) Time (METOP-C) Lat,Lon (METOP-C) SZA (METOP-C ) Distance(km) Time Diff (sec)
1 10/05/2022 19:52:46 73.41,-127.79 78.39 10/05/2022 19:53:54 73.32,-125.55 78.24 71.80 68
2 10/05/2022 20:43:28 -73.30, 39.76 101.71 10/05/2022 20:44:37 -73.29, 41.71 101.78 62.29 69
3 10/05/2022 21:34:10 73.11,-152.51 78.10 10/05/2022 21:35:21 73.04,-151.50 78.00 33.43 71
4 10/05/2022 22:24:52 -73.01, 15.03 102.00 10/05/2022 22:26:05 -72.97, 15.66 102.07 20.98 73
5 10/05/2022 23:15:34 72.81,-177.24 77.81 10/05/2022 23:16:47 72.81,-177.32 77.81 2.53 73
6 10/06/2022 00:06:18 -72.81, -9.93 102.18 10/06/2022 00:07:29 -72.84, -9.94 102.16 3.37 71
7 10/06/2022 00:57:04 72.82, 157.37 77.84 10/06/2022 00:58:08 72.84, 157.39 77.86 2.87 64
8 10/06/2022 01:47:48 -72.81, -35.31 102.15 10/06/2022 01:48:51 -72.81, -35.34 102.16 0.86 63
9 10/06/2022 02:38:34 72.82, 131.99 77.87 10/06/2022 02:39:30 72.81, 132.00 77.86 0.69 56
10 10/06/2022 03:29:18 -72.82, -60.69 102.12 10/06/2022 03:30:12 -72.84, -60.62 102.10 3.36 54
11 10/06/2022 04:20:03 72.77, 106.71 77.85 10/06/2022 04:20:52 72.79, 106.61 77.87 3.77 49
12 10/06/2022 05:10:48 -72.82, -86.08 102.09 10/06/2022 05:11:34 -72.82, -86.01 102.10 2.25 46
13 10/06/2022 06:01:34 72.83, 81.22 77.94 10/06/2022 06:02:13 72.81, 81.32 77.92 3.68 39
14 10/06/2022 06:52:17 -72.78,-111.35 102.11 10/06/2022 06:52:56 -72.79,-111.40 102.10 2.22 39
15 10/06/2022 07:43:03 72.78, 55.94 77.92 10/06/2022 07:43:35 72.79, 55.93 77.92 0.89 32
16 10/06/2022 08:33:47 -72.78,-136.74 102.08 10/06/2022 08:34:18 -72.77,-136.80 102.09 2.59 31
17 10/06/2022 09:24:33 72.79, 30.56 77.95 10/06/2022 09:24:57 72.76, 30.54 77.92 2.61 24
18 10/06/2022 10:15:17 -72.79,-162.12 102.05 10/06/2022 10:15:39 -72.79,-162.08 102.04 1.43 22
19 10/06/2022 11:06:03 72.79, 5.18 77.98 10/06/2022 11:06:18 72.79, 5.25 77.97 2.53 15
20 10/06/2022 11:56:47 -72.79, 172.49 102.01 10/06/2022 11:57:01 -72.77, 172.53 102.04 2.88 14
21 10/06/2022 12:47:32 72.75, -20.10 77.96 10/06/2022 12:47:40 72.76, -20.14 77.98 2.45 8
22 10/06/2022 13:38:16 -72.74, 147.22 102.04 10/06/2022 13:38:23 -72.74, 147.13 102.04 2.69 7
23 10/06/2022 14:29:02 72.75, -45.49 77.99 10/06/2022 14:29:02 72.74, -45.53 77.98 1.91 0
24 10/06/2022 15:19:46 -72.75, 121.83 102.00 10/06/2022 15:19:44 -72.77, 121.85 101.99 2.09 2
25 10/06/2022 16:10:32 72.75, -70.87 78.02 10/06/2022 16:10:23 72.76, -70.82 78.03 2.06 9
26 10/06/2022 17:01:16 -72.75, 96.45 101.97 10/06/2022 17:01:06 -72.74, 96.46 101.98 1.28 10
27 10/06/2022 17:52:02 72.76, -96.26 78.05 10/06/2022 17:51:45 72.74, -96.21 78.03 2.62 17
28 10/06/2022 18:42:45 -72.71, 71.17 101.99 10/06/2022 18:42:28 -72.72, 71.07 101.98 3.60 17
29 10/06/2022 19:33:31 72.71,-121.53 78.03 10/06/2022 19:33:07 72.71,-121.60 78.04 2.29 24
30 10/06/2022 20:24:15 -72.71, 45.79 101.96 10/06/2022 20:23:49 -72.74, 45.78 101.93 3.46 26
31 10/06/2022 21:15:01 72.72,-146.92 78.06 10/06/2022 21:14:28 72.74,-146.89 78.09 2.63 33
32 10/06/2022 22:05:45 -72.72, 20.40 101.93 10/06/2022 22:05:11 -72.72, 20.39 101.93 0.51 34
33 10/06/2022 22:56:31 72.72,-172.30 78.09 10/06/2022 22:55:50 72.71,-172.28 78.09 1.08 41
34 10/06/2022 23:47:15 -72.72, -4.98 101.90 10/06/2022 23:46:33 -72.69, -5.00 101.92 3.19 42
35 10/07/2022 00:38:00 72.68, 162.42 78.07 10/07/2022 00:37:12 72.69, 162.33 78.09 3.40 48
36 10/07/2022 01:28:45 -72.72, -30.37 101.87 10/07/2022 01:27:54 -72.72, -30.29 101.87 2.57 51
37 10/07/2022 02:19:30 72.68, 137.03 78.10 10/07/2022 02:18:33 72.71, 137.04 78.14 3.78 57
38 10/07/2022 03:10:14 -72.68, -55.65 101.89 10/07/2022 03:09:16 -72.69, -55.68 101.87 2.02 58
39 10/07/2022 04:01:00 72.68, 111.65 78.13 10/07/2022 03:59:55 72.69, 111.65 78.15 0.47 65
40 10/07/2022 04:51:44 -72.68, -81.03 101.86 10/07/2022 04:50:38 -72.67, -81.07 101.87 2.24 66
41 10/07/2022 05:42:30 72.69, 86.27 78.17 10/07/2022 05:41:17 72.66, 86.26 78.15 2.92 73
42 10/07/2022 06:33:14 -72.69,-106.41 101.83 10/07/2022 06:31:59 -72.69,-106.36 101.81 1.84 75
43 10/07/2022 07:23:55 72.44, 61.40 77.93 10/07/2022 07:22:43 72.43, 60.45 77.96 31.75 72
44 10/07/2022 08:14:38 -72.39,-131.18 102.12 10/07/2022 08:13:26 -72.41,-132.26 102.05 36.46 72
45 10/07/2022 09:05:19 72.14, 36.62 77.64 10/07/2022 09:04:10 72.15, 34.56 77.72 70.03 69
46 10/07/2022 09:56:02 -72.09,-155.97 102.40 10/07/2022 09:54:54 -72.08,-158.24 102.34 77.86 68



Historial Predications of SNOs between NOAA-20 and METOP-C
